owner,sensor,date,latitude,longitude,sea_surface_height_above_sea_level,qcFlag 
TCOON,ioos:station:TCOON:524:1,2017-10-01T00:18:00Z,29.8672,-93.9310,1.701,1111122 
TCOON,ioos:station:TCOON:524:1,2017-10-01T01:18:00Z,29.8672,-93.9310,1.687,1111122 
TCOON,ioos:station:TCOON:524:1,2017-10-01T02:18:00Z,29.8672,-93.9310,1.669,1111122 
TCOON,ioos:station:TCOON:524:1,2017-10-01T03:18:00Z,29.8672,-93.9310,1.711,1111122 
TCOON,ioos:station:TCOON:524:1,2017-10-01T04:18:00Z,29.8672,-93.9310,1.701,1111122 
TCOON,ioos:station:TCOON:524:1,2017-10-01T05:18:00Z,29.8672,-93.9310,1.752,1111122 
TCOON,ioos:station:TCOON:524:1,2017-10-01T06:18:00Z,29.8672,-93.9310,1.798,1111122 
TCOON,ioos:station:TCOON:524:1,2017-10-01T07:18:00Z,29.8672,-93.9310,1.825,1111122 
TCOON,ioos:station:TCOON:524:1,2017-10-01T08:18:00Z,29.8672,-93.9310,1.862,1111122 
TCOON,ioos:station:TCOON:524:1,2017-10-01T09:18:00Z,29.8672,-93.9310,1.865,1111122 
TCOON,ioos:station:TCOON:524:1,2017-10-01T10:18:00Z,29.8672,-93.9310,1.874,1111122 
TCOON,ioos:station:TCOON:524:1,2017-10-01T11:18:00Z,29.8672,-93.9310,1.882,1111122 
TCOON,ioos:station:TCOON:524:1,2017-10-01T12:18:00Z,29.8672,-93.9310,1.901,1111122 
TCOON,ioos:station:TCOON:524:1,2017-10-01T13:18:00Z,29.8672,-93.9310,1.899,1111122 
TCOON,ioos:station:TCOON:524:1,2017-10-01T14:18:00Z,29.8672,-93.9310,1.856,1111122 
TCOON,ioos:station:TCOON:524:1,2017-10-01T15:18:00Z,29.8672,-93.9310,1.879,1111122 
TCOON,ioos:station:TCOON:524:1,2017-10-01T16:18:00Z,29.8672,-93.9310,1.905,1111122 
TCOON,ioos:station:TCOON:524:1,2017-10-01T17:18:00Z,29.8672,-93.9310,1.899,1111122 
TCOON,ioos:station:TCOON:524:1,2017-10-01T18:18:00Z,29.8672,-93.9310,1.901,1111122 
TCOON,ioos:station:TCOON:524:1,2017-10-01T19:18:00Z,29.8672,-93.9310,1.937,1111122 
TCOON,ioos:station:TCOON:524:1,2017-10-01T20:18:00Z,29.8672,-93.9310,1.919,1111122 
TCOON,ioos:station:TCOON:524:1,2017-10-01T21:18:00Z,29.8672,-93.9310,1.905,1111122 
TCOON,ioos:station:TCOON:524:1,2017-10-01T22:18:00Z,29.8672,-93.9310,1.837,1111122 
TCOON,ioos:station:TCOON:524:1,2017-10-01T23:18:00Z,29.8672,-93.9310,1.786,1111122 
TCOON,ioos:station:TCOON:524:1,2017-10-02T00:18:00Z,29.8672,-93.9310,1.752,1111122 
TCOON,ioos:station:TCOON:524:1,2017-10-02T01:18:00Z,29.8672,-93.9310,1.752,1111122 
TCOON,ioos:station:TCOON:524:1,2017-10-02T02:18:00Z,29.8672,-93.9310,1.74,1111122 
TCOON,ioos:station:TCOON:524:1,2017-10-02T03:18:00Z,29.8672,-93.9310,1.822,1111122 
TCOON,ioos:station:TCOON:524:1,2017-10-02T04:18:00Z,29.8672,-93.9310,1.809,1111122 
TCOON,ioos:station:TCOON:524:1,2017-10-02T05:18:00Z,29.8672,-93.9310,1.855,1111122 
TCOON,ioos:station:TCOON:524:1,2017-10-02T06:48:00Z,29.8672,-93.9310,1.93,1111122 
TCOON,ioos:station:TCOON:524:1,2017-10-02T07:18:00Z,29.8672,-93.9310,2.001,1111122 
TCOON,ioos:station:TCOON:524:1,2017-10-02T08:18:00Z,29.8672,-93.9310,2.022,1111122 
TCOON,ioos:station:TCOON:524:1,2017-10-02T09:18:00Z,29.8672,-93.9310,2.045,1111122 
TCOON,ioos:station:TCOON:524:1,2017-10-02T10:18:00Z,29.8672,-93.9310,2.043,1111122 
TCOON,ioos:station:TCOON:524:1,2017-10-02T11:18:00Z,29.8672,-93.9310,2.064,1111122 
TCOON,ioos:station:TCOON:524:1,2017-10-02T12:18:00Z,29.8672,-93.9310,2.07,1111122 
TCOON,ioos:station:TCOON:524:1,2017-10-02T13:18:00Z,29.8672,-93.9310,2.065,1111122 
TCOON,ioos:station:TCOON:524:1,2017-10-02T14:18:00Z,29.8672,-93.9310,2.039,1111122 
TCOON,ioos:station:TCOON:524:1,2017-10-02T15:18:00Z,29.8672,-93.9310,2.054,1111122 
TCOON,ioos:station:TCOON:524:1,2017-10-02T16:18:00Z,29.8672,-93.9310,2.061,1111122 
TCOON,ioos:station:TCOON:524:1,2017-10-02T17:18:00Z,29.8672,-93.9310,2.113,1111122 
TCOON,ioos:station:TCOON:524:1,2017-10-02T18:18:00Z,29.8672,-93.9310,2.139,1111122 
TCOON,ioos:station:TCOON:524:1,2017-10-02T19:18:00Z,29.8672,-93.9310,2.126,1111122 
TCOON,ioos:station:TCOON:524:1,2017-10-02T20:18:00Z,29.8672,-93.9310,2.159,1111122 
TCOON,ioos:station:TCOON:524:1,2017-10-02T21:18:00Z,29.8672,-93.9310,2.161,1111122 
TCOON,ioos:station:TCOON:524:1,2017-10-02T22:18:00Z,29.8672,-93.9310,2.183,1111122 
TCOON,ioos:station:TCOON:524:1,2017-10-02T23:18:00Z,29.8672,-93.9310,2.124,1111122 
TCOON,ioos:station:TCOON:524:1,2017-10-03T00:18:00Z,29.8672,-93.9310,2.072,1111122 
TCOON,ioos:station:TCOON:524:1,2017-10-03T01:18:00Z,29.8672,-93.9310,2.118,1111122 
TCOON,ioos:station:TCOON:524:1,2017-10-03T02:18:00Z,29.8672,-93.9310,2.027,1111122 
TCOON,ioos:station:TCOON:524:1,2017-10-03T03:18:00Z,29.8672,-93.9310,2.018,1111122 
TCOON,ioos:station:TCOON:524:1,2017-10-03T04:18:00Z,29.8672,-93.9310,2.03,1111122 
TCOON,ioos:station:TCOON:524:1,2017-10-03T05:18:00Z,29.8672,-93.9310,2.074,1111122 
TCOON,ioos:station:TCOON:524:1,2017-10-03T06:18:00Z,29.8672,-93.9310,2.055,1111122 
TCOON,ioos:station:TCOON:524:1,2017-10-03T07:18:00Z,29.8672,-93.9310,2.153,1111122 
TCOON,ioos:station:TCOON:524:1,2017-10-03T08:18:00Z,29.8672,-93.9310,2.197,1111122 
TCOON,ioos:station:TCOON:524:1,2017-10-03T09:18:00Z,29.8672,-93.9310,2.233,1111122 
TCOON,ioos:station:TCOON:524:1,2017-10-03T11:30:00Z,29.8672,-93.9310,2.232,1111122 
TCOON,ioos:station:TCOON:524:1,2017-10-03T12:18:00Z,29.8672,-93.9310,2.243,1111122 
TCOON,ioos:station:TCOON:524:1,2017-10-03T13:18:00Z,29.8672,-93.9310,2.223,1111122 
TCOON,ioos:station:TCOON:524:1,2017-10-03T14:18:00Z,29.8672,-93.9310,2.2,1111122 
TCOON,ioos:station:TCOON:524:1,2017-10-03T15:18:00Z,29.8672,-93.9310,2.172,1111122 
TCOON,ioos:station:TCOON:524:1,2017-10-03T16:18:00Z,29.8672,-93.9310,2.134,1111122 
TCOON,ioos:station:TCOON:524:1,2017-10-03T17:18:00Z,29.8672,-93.9310,2.181,1111122 
TCOON,ioos:station:TCOON:524:1,2017-10-03T18:18:00Z,29.8672,-93.9310,2.22,1111122 
TCOON,ioos:station:TCOON:524:1,2017-10-03T19:18:00Z,29.8672,-93.9310,2.267,1111122 
TCOON,ioos:station:TCOON:524:1,2017-10-03T20:18:00Z,29.8672,-93.9310,2.263,1111122 
TCOON,ioos:station:TCOON:524:1,2017-10-03T21:18:00Z,29.8672,-93.9310,2.292,1111122 
TCOON,ioos:station:TCOON:524:1,2017-10-03T22:18:00Z,29.8672,-93.9310,2.249,1111122 
TCOON,ioos:station:TCOON:524:1,2017-10-03T23:18:00Z,29.8672,-93.9310,2.246,1111122 
TCOON,ioos:station:TCOON:524:1,2017-10-04T00:18:00Z,29.8672,-93.9310,2.215,1111122 
TCOON,ioos:station:TCOON:524:1,2017-10-04T01:18:00Z,29.8672,-93.9310,2.192,1111122 
TCOON,ioos:station:TCOON:524:1,2017-10-04T02:18:00Z,29.8672,-93.9310,2.131,1111122 
TCOON,ioos:station:TCOON:524:1,2017-10-04T03:18:00Z,29.8672,-93.9310,2.121,1111122 
TCOON,ioos:station:TCOON:524:1,2017-10-04T04:18:00Z,29.8672,-93.9310,2.17,1111122 
TCOON,ioos:station:TCOON:524:1,2017-10-04T05:18:00Z,29.8672,-93.9310,2.16,1111122 
TCOON,ioos:station:TCOON:524:1,2017-10-04T06:18:00Z,29.8672,-93.9310,2.172,1111122 
TCOON,ioos:station:TCOON:524:1,2017-10-04T07:18:00Z,29.8672,-93.9310,2.235,1111122 
TCOON,ioos:station:TCOON:524:1,2017-10-04T08:18:00Z,29.8672,-93.9310,2.255,1111122 
TCOON,ioos:station:TCOON:524:1,2017-10-04T09:18:00Z,29.8672,-93.9310,2.284,1111122 
TCOON,ioos:station:TCOON:524:1,2017-10-04T11:12:00Z,29.8672,-93.9310,2.266,1111122 
TCOON,ioos:station:TCOON:524:1,2017-10-04T12:18:00Z,29.8672,-93.9310,2.245,1111122 
TCOON,ioos:station:TCOON:524:1,2017-10-04T13:18:00Z,29.8672,-93.9310,2.197,1111122 
TCOON,ioos:station:TCOON:524:1,2017-10-04T14:18:00Z,29.8672,-93.9310,2.204,1111122 
TCOON,ioos:station:TCOON:524:1,2017-10-04T15:18:00Z,29.8672,-93.9310,2.073,1111122 
TCOON,ioos:station:TCOON:524:1,2017-10-04T16:18:00Z,29.8672,-93.9310,2.115,1111122 
TCOON,ioos:station:TCOON:524:1,2017-10-04T17:18:00Z,29.8672,-93.9310,2.168,1111122 
TCOON,ioos:station:TCOON:524:1,2017-10-04T18:18:00Z,29.8672,-93.9310,2.17,1111122 
TCOON,ioos:station:TCOON:524:1,2017-10-04T19:18:00Z,29.8672,-93.9310,2.184,1111122 
TCOON,ioos:station:TCOON:524:1,2017-10-04T20:18:00Z,29.8672,-93.9310,2.196,1111122 
TCOON,ioos:station:TCOON:524:1,2017-10-04T21:18:00Z,29.8672,-93.9310,2.252,1111122 
TCOON,ioos:station:TCOON:524:1,2017-10-04T22:18:00Z,29.8672,-93.9310,2.254,1111122 
TCOON,ioos:station:TCOON:524:1,2017-10-04T23:18:00Z,29.8672,-93.9310,2.241,1111122 
TCOON,ioos:station:TCOON:524:1,2017-10-05T00:18:00Z,29.8672,-93.9310,2.219,1111122 
TCOON,ioos:station:TCOON:524:1,2017-10-05T01:18:00Z,29.8672,-93.9310,2.203,1111122 
TCOON,ioos:station:TCOON:524:1,2017-10-05T02:18:00Z,29.8672,-93.9310,2.142,1111122 
TCOON,ioos:station:TCOON:524:1,2017-10-05T03:18:00Z,29.8672,-93.9310,2.123,1111122 
TCOON,ioos:station:TCOON:524:1,2017-10-05T04:18:00Z,29.8672,-93.9310,2.104,1111122 
TCOON,ioos:station:TCOON:524:1,2017-10-05T05:18:00Z,29.8672,-93.9310,2.125,1111122 
TCOON,ioos:station:TCOON:524:1,2017-10-05T06:18:00Z,29.8672,-93.9310,2.188,1111122 
TCOON,ioos:station:TCOON:524:1,2017-10-05T07:18:00Z,29.8672,-93.9310,2.206,1111122 
TCOON,ioos:station:TCOON:524:1,2017-10-05T08:18:00Z,29.8672,-93.9310,2.224,1111122 
TCOON,ioos:station:TCOON:524:1,2017-10-05T09:18:00Z,29.8672,-93.9310,2.25,1111122 
TCOON,ioos:station:TCOON:524:1,2017-10-05T10:18:00Z,29.8672,-93.9310,2.261,1111122 
TCOON,ioos:station:TCOON:524:1,2017-10-05T11:18:00Z,29.8672,-93.9310,2.265,1111122 
TCOON,ioos:station:TCOON:524:1,2017-10-05T12:18:00Z,29.8672,-93.9310,2.254,1111122 
TCOON,ioos:station:TCOON:524:1,2017-10-05T13:18:00Z,29.8672,-93.9310,2.225,1111122 
TCOON,ioos:station:TCOON:524:1,2017-10-05T14:18:00Z,29.8672,-93.9310,2.169,1111122 
TCOON,ioos:station:TCOON:524:1,2017-10-05T15:18:00Z,29.8672,-93.9310,2.138,1111122 
TCOON,ioos:station:TCOON:524:1,2017-10-05T16:18:00Z,29.8672,-93.9310,2.111,1111122 
TCOON,ioos:station:TCOON:524:1,2017-10-05T17:30:00Z,29.8672,-93.9310,2.105,1111122 
TCOON,ioos:station:TCOON:524:1,2017-10-05T18:24:00Z,29.8672,-93.9310,2.116,1111122 
TCOON,ioos:station:TCOON:524:1,2017-10-05T19:30:00Z,29.8672,-93.9310,2.162,1111122 
TCOON,ioos:station:TCOON:524:1,2017-10-05T20:18:00Z,29.8672,-93.9310,2.18,1111122 
TCOON,ioos:station:TCOON:524:1,2017-10-05T21:18:00Z,29.8672,-93.9310,2.234,1111122 
TCOON,ioos:station:TCOON:524:1,2017-10-05T22:18:00Z,29.8672,-93.9310,2.251,1111122 
TCOON,ioos:station:TCOON:524:1,2017-10-05T23:18:00Z,29.8672,-93.9310,2.257,1111122 
TCOON,ioos:station:TCOON:524:1,2017-10-06T00:18:00Z,29.8672,-93.9310,2.234,1111122 
TCOON,ioos:station:TCOON:524:1,2017-10-06T01:18:00Z,29.8672,-93.9310,2.211,1111122 
TCOON,ioos:station:TCOON:524:1,2017-10-06T02:18:00Z,29.8672,-93.9310,2.142,1111122 
TCOON,ioos:station:TCOON:524:1,2017-10-06T03:18:00Z,29.8672,-93.9310,2.082,1111122 
TCOON,ioos:station:TCOON:524:1,2017-10-06T04:18:00Z,29.8672,-93.9310,2.058,1111122 
TCOON,ioos:station:TCOON:524:1,2017-10-06T05:18:00Z,29.8672,-93.9310,2.019,1111122 
TCOON,ioos:station:TCOON:524:1,2017-10-06T06:18:00Z,29.8672,-93.9310,2.086,1111122 
TCOON,ioos:station:TCOON:524:1,2017-10-06T07:18:00Z,29.8672,-93.9310,2.097,1111122 
TCOON,ioos:station:TCOON:524:1,2017-10-06T08:18:00Z,29.8672,-93.9310,2.123,1111122 
TCOON,ioos:station:TCOON:524:1,2017-10-06T09:18:00Z,29.8672,-93.9310,2.155,1111122 
TCOON,ioos:station:TCOON:524:1,2017-10-06T10:18:00Z,29.8672,-93.9310,2.167,1111122 
TCOON,ioos:station:TCOON:524:1,2017-10-06T11:18:00Z,29.8672,-93.9310,2.179,1111122 
TCOON,ioos:station:TCOON:524:1,2017-10-06T12:18:00Z,29.8672,-93.9310,2.157,1111122 
TCOON,ioos:station:TCOON:524:1,2017-10-06T13:18:00Z,29.8672,-93.9310,2.125,1111122 
TCOON,ioos:station:TCOON:524:1,2017-10-06T14:18:00Z,29.8672,-93.9310,2.089,1111122 
TCOON,ioos:station:TCOON:524:1,2017-10-06T15:18:00Z,29.8672,-93.9310,1.965,1111122 
TCOON,ioos:station:TCOON:524:1,2017-10-06T16:18:00Z,29.8672,-93.9310,1.925,1111122 
TCOON,ioos:station:TCOON:524:1,2017-10-06T17:18:00Z,29.8672,-93.9310,1.972,1111122 
TCOON,ioos:station:TCOON:524:1,2017-10-06T18:18:00Z,29.8672,-93.9310,2.022,1111122 
TCOON,ioos:station:TCOON:524:1,2017-10-06T19:18:00Z,29.8672,-93.9310,2.052,1111122 
TCOON,ioos:station:TCOON:524:1,2017-10-06T20:18:00Z,29.8672,-93.9310,2.075,1111122 
TCOON,ioos:station:TCOON:524:1,2017-10-06T21:18:00Z,29.8672,-93.9310,2.119,1111122 
TCOON,ioos:station:TCOON:524:1,2017-10-06T22:18:00Z,29.8672,-93.9310,2.184,1111122 
TCOON,ioos:station:TCOON:524:1,2017-10-06T23:18:00Z,29.8672,-93.9310,2.219,1111122 
TCOON,ioos:station:TCOON:524:1,2017-10-07T00:18:00Z,29.8672,-93.9310,2.186,1111122 
TCOON,ioos:station:TCOON:524:1,2017-10-07T01:18:00Z,29.8672,-93.9310,2.197,1111122 
TCOON,ioos:station:TCOON:524:1,2017-10-07T02:18:00Z,29.8672,-93.9310,2.195,1111122 
TCOON,ioos:station:TCOON:524:1,2017-10-07T03:18:00Z,29.8672,-93.9310,2.176,1111122 
TCOON,ioos:station:TCOON:524:1,2017-10-07T04:18:00Z,29.8672,-93.9310,2.148,1111122 
TCOON,ioos:station:TCOON:524:1,2017-10-07T05:18:00Z,29.8672,-93.9310,2.18,1111122 
TCOON,ioos:station:TCOON:524:1,2017-10-07T06:18:00Z,29.8672,-93.9310,2.168,1111122 
TCOON,ioos:station:TCOON:524:1,2017-10-07T07:18:00Z,29.8672,-93.9310,2.181,1111122 
TCOON,ioos:station:TCOON:524:1,2017-10-07T08:18:00Z,29.8672,-93.9310,2.237,1111122 
TCOON,ioos:station:TCOON:524:1,2017-10-07T09:18:00Z,29.8672,-93.9310,2.262,1111122 
TCOON,ioos:station:TCOON:524:1,2017-10-07T10:18:00Z,29.8672,-93.9310,2.267,1111122 
TCOON,ioos:station:TCOON:524:1,2017-10-07T11:18:00Z,29.8672,-93.9310,2.273,1111122 
TCOON,ioos:station:TCOON:524:1,2017-10-07T12:18:00Z,29.8672,-93.9310,2.306,1111122 
TCOON,ioos:station:TCOON:524:1,2017-10-07T13:18:00Z,29.8672,-93.9310,2.27,1111122 
TCOON,ioos:station:TCOON:524:1,2017-10-07T14:18:00Z,29.8672,-93.9310,2.243,1111122 
TCOON,ioos:station:TCOON:524:1,2017-10-07T15:18:00Z,29.8672,-93.9310,2.197,1111122 
TCOON,ioos:station:TCOON:524:1,2017-10-07T16:18:00Z,29.8672,-93.9310,2.098,1111122 
TCOON,ioos:station:TCOON:524:1,2017-10-07T17:18:00Z,29.8672,-93.9310,2.079,1111122 
TCOON,ioos:station:TCOON:524:1,2017-10-07T18:18:00Z,29.8672,-93.9310,2.072,1111122 
TCOON,ioos:station:TCOON:524:1,2017-10-07T19:18:00Z,29.8672,-93.9310,2.116,1111122 
TCOON,ioos:station:TCOON:524:1,2017-10-07T20:18:00Z,29.8672,-93.9310,2.067,1111122 
TCOON,ioos:station:TCOON:524:1,2017-10-07T21:18:00Z,29.8672,-93.9310,2.161,1111122 
TCOON,ioos:station:TCOON:524:1,2017-10-07T22:18:00Z,29.8672,-93.9310,2.239,1111122 
TCOON,ioos:station:TCOON:524:1,2017-10-07T23:18:00Z,29.8672,-93.9310,2.312,1111122 
TCOON,ioos:station:TCOON:524:1,2017-10-08T00:18:00Z,29.8672,-93.9310,2.306,1111122 
TCOON,ioos:station:TCOON:524:1,2017-10-08T01:18:00Z,29.8672,-93.9310,2.286,1111122 
TCOON,ioos:station:TCOON:524:1,2017-10-08T02:18:00Z,29.8672,-93.9310,2.28,1111122 
TCOON,ioos:station:TCOON:524:1,2017-10-08T03:18:00Z,29.8672,-93.9310,2.255,1111122 
TCOON,ioos:station:TCOON:524:1,2017-10-08T04:18:00Z,29.8672,-93.9310,2.241,1111122 
TCOON,ioos:station:TCOON:524:1,2017-10-08T05:18:00Z,29.8672,-93.9310,2.178,1111122 
TCOON,ioos:station:TCOON:524:1,2017-10-08T06:18:00Z,29.8672,-93.9310,2.145,1111122 
TCOON,ioos:station:TCOON:524:1,2017-10-08T07:18:00Z,29.8672,-93.9310,2.148,1111122 
TCOON,ioos:station:TCOON:524:1,2017-10-08T08:18:00Z,29.8672,-93.9310,2.169,1111122 
TCOON,ioos:station:TCOON:524:1,2017-10-08T09:18:00Z,29.8672,-93.9310,2.193,1111122 
TCOON,ioos:station:TCOON:524:1,2017-10-08T10:18:00Z,29.8672,-93.9310,2.188,1111122 
TCOON,ioos:station:TCOON:524:1,2017-10-08T11:18:00Z,29.8672,-93.9310,2.206,1111122 
TCOON,ioos:station:TCOON:524:1,2017-10-08T12:18:00Z,29.8672,-93.9310,2.2,1111122 
TCOON,ioos:station:TCOON:524:1,2017-10-08T13:18:00Z,29.8672,-93.9310,2.189,1111122 
TCOON,ioos:station:TCOON:524:1,2017-10-08T14:18:00Z,29.8672,-93.9310,2.154,1111122 
TCOON,ioos:station:TCOON:524:1,2017-10-08T15:18:00Z,29.8672,-93.9310,2.051,1111122 
TCOON,ioos:station:TCOON:524:1,2017-10-08T16:18:00Z,29.8672,-93.9310,1.98,1111122 
TCOON,ioos:station:TCOON:524:1,2017-10-08T17:18:00Z,29.8672,-93.9310,1.935,1111122 
TCOON,ioos:station:TCOON:524:1,2017-10-08T18:18:00Z,29.8672,-93.9310,1.932,1111122 
TCOON,ioos:station:TCOON:524:1,2017-10-08T19:18:00Z,29.8672,-93.9310,1.969,1111122 
TCOON,ioos:station:TCOON:524:1,2017-10-08T20:18:00Z,29.8672,-93.9310,1.987,1111122 
TCOON,ioos:station:TCOON:524:1,2017-10-08T21:18:00Z,29.8672,-93.9310,2.051,1111122 
TCOON,ioos:station:TCOON:524:1,2017-10-08T22:18:00Z,29.8672,-93.9310,2.112,1111122 
TCOON,ioos:station:TCOON:524:1,2017-10-08T23:18:00Z,29.8672,-93.9310,2.19,1111122 
TCOON,ioos:station:TCOON:524:1,2017-10-09T00:18:00Z,29.8672,-93.9310,2.229,1111122 
TCOON,ioos:station:TCOON:524:1,2017-10-09T01:18:00Z,29.8672,-93.9310,2.244,1111122 
TCOON,ioos:station:TCOON:524:1,2017-10-09T02:18:00Z,29.8672,-93.9310,2.23,1111122 
TCOON,ioos:station:TCOON:524:1,2017-10-09T03:18:00Z,29.8672,-93.9310,2.247,1111122 
TCOON,ioos:station:TCOON:524:1,2017-10-09T04:18:00Z,29.8672,-93.9310,2.203,1111122 
TCOON,ioos:station:TCOON:524:1,2017-10-09T05:18:00Z,29.8672,-93.9310,2.192,1111122 
TCOON,ioos:station:TCOON:524:1,2017-10-09T06:18:00Z,29.8672,-93.9310,2.189,1111122 
TCOON,ioos:station:TCOON:524:1,2017-10-09T07:18:00Z,29.8672,-93.9310,2.174,1111122 
TCOON,ioos:station:TCOON:524:1,2017-10-09T08:18:00Z,29.8672,-93.9310,2.172,1111122 
TCOON,ioos:station:TCOON:524:1,2017-10-09T10:18:00Z,29.8672,-93.9310,2.188,1111122 
TCOON,ioos:station:TCOON:524:1,2017-10-09T11:18:00Z,29.8672,-93.9310,2.192,1111122 
TCOON,ioos:station:TCOON:524:1,2017-10-09T12:18:00Z,29.8672,-93.9310,2.168,1111122 
TCOON,ioos:station:TCOON:524:1,2017-10-09T13:18:00Z,29.8672,-93.9310,2.156,1111122 
TCOON,ioos:station:TCOON:524:1,2017-10-09T14:18:00Z,29.8672,-93.9310,2.127,1111122 
TCOON,ioos:station:TCOON:524:1,2017-10-09T15:18:00Z,29.8672,-93.9310,1.981,1111122 
TCOON,ioos:station:TCOON:524:1,2017-10-09T16:18:00Z,29.8672,-93.9310,1.948,1111122 
TCOON,ioos:station:TCOON:524:1,2017-10-09T17:24:00Z,29.8672,-93.9310,1.898,1111122 
TCOON,ioos:station:TCOON:524:1,2017-10-09T18:18:00Z,29.8672,-93.9310,1.873,1111122 
TCOON,ioos:station:TCOON:524:1,2017-10-09T19:18:00Z,29.8672,-93.9310,1.857,1111122 
TCOON,ioos:station:TCOON:524:1,2017-10-09T20:18:00Z,29.8672,-93.9310,1.834,1111122 
TCOON,ioos:station:TCOON:524:1,2017-10-09T21:18:00Z,29.8672,-93.9310,1.932,1111122 
TCOON,ioos:station:TCOON:524:1,2017-10-09T22:18:00Z,29.8672,-93.9310,1.939,1111122 
TCOON,ioos:station:TCOON:524:1,2017-10-09T23:18:00Z,29.8672,-93.9310,1.993,1111122 
TCOON,ioos:station:TCOON:524:1,2017-10-10T00:18:00Z,29.8672,-93.9310,2.041,1111122 
TCOON,ioos:station:TCOON:524:1,2017-10-10T01:18:00Z,29.8672,-93.9310,2.175,1111122 
TCOON,ioos:station:TCOON:524:1,2017-10-10T02:18:00Z,29.8672,-93.9310,2.122,1111122 
TCOON,ioos:station:TCOON:524:1,2017-10-10T03:18:00Z,29.8672,-93.9310,2.153,1111122 
TCOON,ioos:station:TCOON:524:1,2017-10-10T04:18:00Z,29.8672,-93.9310,2.159,1111122 
TCOON,ioos:station:TCOON:524:1,2017-10-10T05:18:00Z,29.8672,-93.9310,2.154,1111122 
TCOON,ioos:station:TCOON:524:1,2017-10-10T06:18:00Z,29.8672,-93.9310,2.132,1111122 
TCOON,ioos:station:TCOON:524:1,2017-10-10T07:18:00Z,29.8672,-93.9310,2.118,1111122 
TCOON,ioos:station:TCOON:524:1,2017-10-10T08:18:00Z,29.8672,-93.9310,2.114,1111122 
TCOON,ioos:station:TCOON:524:1,2017-10-10T09:18:00Z,29.8672,-93.9310,2.119,1111122 
TCOON,ioos:station:TCOON:524:1,2017-10-10T10:18:00Z,29.8672,-93.9310,2.133,1111122 
TCOON,ioos:station:TCOON:524:1,2017-10-10T11:18:00Z,29.8672,-93.9310,2.151,1111122 
TCOON,ioos:station:TCOON:524:1,2017-10-10T12:18:00Z,29.8672,-93.9310,2.15,1111122 
TCOON,ioos:station:TCOON:524:1,2017-10-10T13:18:00Z,29.8672,-93.9310,2.101,1111122 
TCOON,ioos:station:TCOON:524:1,2017-10-10T14:18:00Z,29.8672,-93.9310,2.096,1111122 
TCOON,ioos:station:TCOON:524:1,2017-10-10T15:18:00Z,29.8672,-93.9310,2.038,1111122 
TCOON,ioos:station:TCOON:524:1,2017-10-10T16:18:00Z,29.8672,-93.9310,1.958,1111122 
TCOON,ioos:station:TCOON:524:1,2017-10-10T17:18:00Z,29.8672,-93.9310,1.882,1111122 
TCOON,ioos:station:TCOON:524:1,2017-10-10T18:18:00Z,29.8672,-93.9310,1.845,1111122 
TCOON,ioos:station:TCOON:524:1,2017-10-10T19:18:00Z,29.8672,-93.9310,1.799,1111122 
TCOON,ioos:station:TCOON:524:1,2017-10-10T20:18:00Z,29.8672,-93.9310,1.837,1111122 
TCOON,ioos:station:TCOON:524:1,2017-10-10T21:18:00Z,29.8672,-93.9310,1.809,1111122 
TCOON,ioos:station:TCOON:524:1,2017-10-10T22:18:00Z,29.8672,-93.9310,1.827,1111122 
TCOON,ioos:station:TCOON:524:1,2017-10-10T23:18:00Z,29.8672,-93.9310,1.906,1111122 
TCOON,ioos:station:TCOON:524:1,2017-10-11T00:18:00Z,29.8672,-93.9310,1.913,1111122 
TCOON,ioos:station:TCOON:524:1,2017-10-11T01:18:00Z,29.8672,-93.9310,1.939,1111122 
TCOON,ioos:station:TCOON:524:1,2017-10-11T02:18:00Z,29.8672,-93.9310,1.987,1111122 
TCOON,ioos:station:TCOON:524:1,2017-10-11T03:18:00Z,29.8672,-93.9310,2.028,1111122 
TCOON,ioos:station:TCOON:524:1,2017-10-11T04:18:00Z,29.8672,-93.9310,2.016,1111122 
TCOON,ioos:station:TCOON:524:1,2017-10-11T05:18:00Z,29.8672,-93.9310,2.019,1111122 
TCOON,ioos:station:TCOON:524:1,2017-10-11T06:18:00Z,29.8672,-93.9310,2.023,1111122 
TCOON,ioos:station:TCOON:524:1,2017-10-11T07:18:00Z,29.8672,-93.9310,1.966,1111122 
TCOON,ioos:station:TCOON:524:1,2017-10-11T08:18:00Z,29.8672,-93.9310,1.932,1111122 
TCOON,ioos:station:TCOON:524:1,2017-10-11T09:18:00Z,29.8672,-93.9310,1.921,1111122 
TCOON,ioos:station:TCOON:524:1,2017-10-11T10:18:00Z,29.8672,-93.9310,1.951,1111122 
TCOON,ioos:station:TCOON:524:1,2017-10-11T11:18:00Z,29.8672,-93.9310,1.87,1111122 
TCOON,ioos:station:TCOON:524:1,2017-10-11T12:18:00Z,29.8672,-93.9310,1.909,1111122 
TCOON,ioos:station:TCOON:524:1,2017-10-11T13:18:00Z,29.8672,-93.9310,1.916,1111122 
TCOON,ioos:station:TCOON:524:1,2017-10-11T14:18:00Z,29.8672,-93.9310,1.891,1111122 
TCOON,ioos:station:TCOON:524:1,2017-10-11T15:18:00Z,29.8672,-93.9310,1.869,1111122 
TCOON,ioos:station:TCOON:524:1,2017-10-11T16:18:00Z,29.8672,-93.9310,1.863,1111122 
TCOON,ioos:station:TCOON:524:1,2017-10-11T17:18:00Z,29.8672,-93.9310,1.785,1111122 
TCOON,ioos:station:TCOON:524:1,2017-10-11T18:18:00Z,29.8672,-93.9310,1.73,1111122 
TCOON,ioos:station:TCOON:524:1,2017-10-11T19:18:00Z,29.8672,-93.9310,1.728,1111122 
TCOON,ioos:station:TCOON:524:1,2017-10-11T20:18:00Z,29.8672,-93.9310,1.702,1111122 
TCOON,ioos:station:TCOON:524:1,2017-10-11T21:18:00Z,29.8672,-93.9310,1.692,1111122 
TCOON,ioos:station:TCOON:524:1,2017-10-11T22:18:00Z,29.8672,-93.9310,1.694,1111122 
TCOON,ioos:station:TCOON:524:1,2017-10-11T23:18:00Z,29.8672,-93.9310,1.713,1111122 
TCOON,ioos:station:TCOON:524:1,2017-10-12T00:18:00Z,29.8672,-93.9310,1.782,1111122 
TCOON,ioos:station:TCOON:524:1,2017-10-12T01:18:00Z,29.8672,-93.9310,1.83,1111122 
TCOON,ioos:station:TCOON:524:1,2017-10-12T02:18:00Z,29.8672,-93.9310,1.853,1111122 
TCOON,ioos:station:TCOON:524:1,2017-10-12T03:18:00Z,29.8672,-93.9310,1.897,1111122 
TCOON,ioos:station:TCOON:524:1,2017-10-12T04:24:00Z,29.8672,-93.9310,1.974,1111122 
TCOON,ioos:station:TCOON:524:1,2017-10-12T05:18:00Z,29.8672,-93.9310,1.982,1111122 
TCOON,ioos:station:TCOON:524:1,2017-10-12T06:18:00Z,29.8672,-93.9310,2.024,1111122 
TCOON,ioos:station:TCOON:524:1,2017-10-12T07:18:00Z,29.8672,-93.9310,2.033,1111122 
TCOON,ioos:station:TCOON:524:1,2017-10-12T08:18:00Z,29.8672,-93.9310,2.029,1111122 
TCOON,ioos:station:TCOON:524:1,2017-10-12T09:18:00Z,29.8672,-93.9310,2.037,1111122 
TCOON,ioos:station:TCOON:524:1,2017-10-12T10:18:00Z,29.8672,-93.9310,2.026,1111122 
TCOON,ioos:station:TCOON:524:1,2017-10-12T11:18:00Z,29.8672,-93.9310,2.02,1111122 
TCOON,ioos:station:TCOON:524:1,2017-10-12T12:18:00Z,29.8672,-93.9310,2.041,1111122 
TCOON,ioos:station:TCOON:524:1,2017-10-12T13:18:00Z,29.8672,-93.9310,2.014,1111122 
TCOON,ioos:station:TCOON:524:1,2017-10-12T14:18:00Z,29.8672,-93.9310,1.998,1111122 
TCOON,ioos:station:TCOON:524:1,2017-10-12T15:18:00Z,29.8672,-93.9310,1.961,1111122 
TCOON,ioos:station:TCOON:524:1,2017-10-12T16:18:00Z,29.8672,-93.9310,1.984,1111122 
TCOON,ioos:station:TCOON:524:1,2017-10-12T17:18:00Z,29.8672,-93.9310,1.946,1111122 
TCOON,ioos:station:TCOON:524:1,2017-10-12T18:18:00Z,29.8672,-93.9310,1.901,1111122 
TCOON,ioos:station:TCOON:524:1,2017-10-12T19:18:00Z,29.8672,-93.9310,1.833,1111122 
TCOON,ioos:station:TCOON:524:1,2017-10-12T20:18:00Z,29.8672,-93.9310,1.785,1111122 
TCOON,ioos:station:TCOON:524:1,2017-10-12T21:18:00Z,29.8672,-93.9310,1.759,1111122 
TCOON,ioos:station:TCOON:524:1,2017-10-12T22:18:00Z,29.8672,-93.9310,1.728,1111122 
TCOON,ioos:station:TCOON:524:1,2017-10-12T23:18:00Z,29.8672,-93.9310,1.748,1111122 